Find Starlink 30427

NORAD ID: 57865 Int'l Des: 2023-144 Owner: SPXS Country: US Constellation: starlink operational
LEOCIRCULAR

現在のビュー

3D地球を読み込み中...

About Starlink 30427

Starlink 30427 (NORAD 57865) is a starlink constellation satellite (v2 mini) launched Sep 16, 2023 by SPXS of US. It operates in LEO, CIRCULAR orbit with a mass of 730.00 kg.

Starlink 30427について

説明を読み込み中...

次回通過

Passes for default location (London). Set your location on the main map for personalized predictions.

高度履歴

Loading altitude history...

軌道要素

1 57865U 23144B 26170.13710549 -.00001030 00000-0 -27903-4 0 9992
2 57865 43.0016 72.1837 0001066 263.5438 96.5292 15.27572890153119
Epoch: Jun 19, 2026 • Age: 30 hours

現在のステータス

高度 482.8 km
速度 7.63 km/s
衛星直下点 19.57°N, 167.66°E
打ち上げ日 Sep 16, 2023
運用期間 2.7 years
タイプ internet

技術仕様

分類 Payload
質量 730.00 kg
乾燥質量 700.00 kg
総質量 730.00 kg
長さ 0.30 m
直径 4.10 m
スパン 29.00 m
形状 Box + pan
製造者 SPXS
バスタイプ Starlink V2M
フェーズステータス In Orbit
所有者/国 SPXS/US

Most Searched